Location: Saint-Usage
(47.1052°N, 5.2587°E)
Time: 01:51:54
(UTC+01:00)

NOAA 19 - Pass Details

Date: 01 December 2021
Orbit: 841 x 860 km, 99.2° (Epoch: 17 January)

Event Time Altitude Azimuth Distance (km) Brightness Sun altitude
Rises 06:58:59 0° 29° (NNE) 3,427 8.5 -10.8°
Reaches altitude 10° 07:02:15 10° 50° (NE) 2,489 8.0 -10.3°
Maximum altitude 07:05:47 17° 90° (E) 2,029 8.3 -9.7°
Drops below altitude 10° 07:09:18 10° 130° (SE) 2,485 9.0 -9.2°
Sets 07:12:32 0° 149° (SSE) 3,419 9.3 -8.7°
